Date String (YYYY-MM-DD hh:mm:ss) UTC,Instrument flags,Ambient pressure (hPa),Sample flow (lpm),Bypass flow (lpm),Sample temperature (°C),Ambient temperature (°C),ASC tube jacket temperature (°C),LED temperature (°C),Box temperature (°C),Sample RH (%),Span deviation,Mass concentration (μg/m³),Mass concentration (μg/m³),Mass concentration (μg/m³)
DateTimeUTC,F1_M11,P_M11,Q1_M11,Q2_M11,T1_M11,T2_M11,T3_M11,T4_M11,T5_M11,U1_M11,ZSPAN_M11,X0_M11,X2_M11,X1_M11
2022-01-22 11:00:00,,0832.3,5.02,0.00,22.2,21.4,00.0,31.3,23.8,13.8,-000.3,0007.97,0005.50,0005.39
2022-01-22 11:01:00,,0832.4,5.00,0.00,22.1,21.4,00.0,31.3,23.8,13.8,-000.2,0007.76,0005.38,0005.27
2022-01-22 11:02:00,,0832.4,4.99,0.00,22.1,21.4,00.0,31.3,23.8,13.8,0000.0,0007.57,0005.25,0005.15
2022-01-22 11:03:00,,0832.4,5.02,0.00,22.1,21.4,00.0,31.2,23.8,13.8,0000.0,0007.51,0005.16,0005.06
2022-01-22 11:04:00,,0832.4,4.99,0.00,22.1,21.9,00.0,31.3,23.9,13.7,0000.0,0007.38,0005.04,0004.94
2022-01-22 11:05:00,,0832.4,5.00,0.00,22.3,22.7,00.0,31.3,24.2,13.7,0000.0,0007.19,0004.93,0004.83
2022-01-22 11:06:00,,0832.3,5.01,0.00,22.4,23.0,00.0,31.3,24.4,13.5,0000.0,0006.93,0004.82,0004.73
2022-01-22 11:07:00,,0832.4,5.00,0.00,22.4,22.8,00.0,31.3,24.4,13.3,0000.0,0006.93,0004.79,0004.68
2022-01-22 11:08:00,,0832.4,5.00,0.00,22.4,22.6,00.0,31.3,24.3,13.2,0000.0,0006.81,0004.75,0004.63
2022-01-22 11:09:00,,0832.3,4.99,0.00,22.4,22.3,00.0,31.3,24.2,13.2,0000.0,0006.68,0004.70,0004.59
2022-01-22 11:10:00,,0832.4,5.01,0.00,22.4,22.2,00.0,31.3,24.2,13.2,0000.0,0005.99,0004.66,0004.55
2022-01-22 11:11:00,,0832.3,5.00,0.00,22.4,22.0,00.0,31.3,24.1,13.2,0000.0,0005.72,0004.62,0004.51
2022-01-22 11:12:00,,0832.3,4.99,0.00,22.3,21.9,00.0,31.3,24.1,13.1,0000.0,0005.70,0004.58,0004.48
2022-01-22 11:13:00,,0832.2,5.01,0.00,22.3,21.8,00.0,31.3,24.0,13.1,0000.0,0005.57,0004.52,0004.43
2022-01-22 11:14:00,,0832.3,5.00,0.00,22.3,21.7,00.0,31.3,24.0,13.0,0000.0,0005.42,0004.45,0004.36
2022-01-22 11:15:00,,0832.3,5.00,0.00,22.2,21.6,00.0,31.3,23.9,13.0,0000.0,0005.27,0004.38,0004.29
2022-01-22 11:16:00,,0832.3,4.98,0.00,22.2,21.6,00.0,31.3,23.9,13.0,0000.0,0005.08,0004.28,0004.21
2022-01-22 11:17:00,,0832.3,5.02,0.00,22.2,21.5,00.0,31.3,23.9,12.9,0000.0,0004.99,0004.20,0004.12
2022-01-22 11:18:00,,0832.3,4.99,0.00,22.2,21.5,00.0,31.3,23.8,12.9,0000.0,0004.79,0004.14,0004.07
2022-01-22 11:19:00,,0832.3,5.02,0.00,22.1,21.4,00.0,31.3,23.8,12.9,0000.0,0004.63,0004.07,0004.01
2022-01-22 11:20:00,,0832.2,4.99,0.00,22.1,21.4,00.0,31.2,23.8,12.9,0000.0,0004.56,0004.02,0003.97
2022-01-22 11:21:00,,0832.2,5.01,0.00,22.1,21.4,00.0,31.2,23.8,12.9,0000.0,0004.50,0003.98,0003.93
2022-01-22 11:22:00,,0832.2,5.00,0.00,22.1,21.6,00.0,31.2,23.8,12.8,0000.0,0004.50,0003.97,0003.91
2022-01-22 11:23:00,,0832.1,4.99,0.00,22.2,22.2,00.0,31.2,24.0,12.8,0000.0,0004.43,0003.94,0003.88
2022-01-22 11:24:00,,0832.1,5.01,0.00,22.3,22.9,00.0,31.3,24.3,12.7,0000.0,0004.34,0003.91,0003.86
2022-01-22 11:25:00,,0832.1,5.01,0.00,22.4,23.0,00.0,31.3,24.4,12.7,0000.0,0004.32,0003.90,0003.85
2022-01-22 11:26:00,,0832.1,5.00,0.00,22.4,22.7,00.0,31.3,24.3,12.7,0000.0,0004.36,0003.92,0003.87
2022-01-22 11:27:00,,0832.1,5.02,0.00,22.4,22.5,00.0,31.3,24.3,12.7,0000.0,0004.44,0003.95,0003.89
2022-01-22 11:28:00,,0832.1,4.99,0.00,22.4,22.3,00.0,31.3,24.2,12.6,0000.0,0004.42,0003.94,0003.89
2022-01-22 11:29:00,,0832.1,5.00,0.00,22.4,22.1,00.0,31.3,24.1,12.6,0000.0,0004.39,0003.93,0003.88
2022-01-22 11:30:00,,0832.1,5.02,0.00,22.3,22.0,00.0,31.3,24.1,12.6,0000.0,0004.41,0003.93,0003.86
2022-01-22 11:31:00,,0832.1,4.99,0.00,22.3,21.9,00.0,31.3,24.0,12.5,0000.0,0004.36,0003.91,0003.85
2022-01-22 11:32:00,,0832.1,5.01,0.00,22.3,21.8,00.0,31.3,24.0,12.5,0000.0,0004.35,0003.89,0003.82
2022-01-22 11:33:00,,0832.1,4.99,0.00,22.3,21.7,00.0,31.3,23.9,12.6,0000.0,0004.32,0003.87,0003.80
2022-01-22 11:34:00,,0832.0,5.01,0.00,22.2,21.6,00.0,31.3,23.9,12.6,0000.0,0004.28,0003.85,0003.79
2022-01-22 11:35:00,,0831.9,5.00,0.00,22.2,21.6,00.0,31.3,23.9,12.6,0000.0,0004.25,0003.83,0003.77
2022-01-22 11:36:00,,0832.0,4.98,0.00,22.2,21.5,00.0,31.3,23.8,12.6,0000.0,0004.19,0003.80,0003.74
2022-01-22 11:37:00,,0832.0,5.01,0.00,22.1,21.4,00.0,31.3,23.8,12.6,0000.0,0004.06,0003.73,0003.68
2022-01-22 11:38:00,,0832.0,4.98,0.00,22.1,21.4,00.0,31.2,23.8,12.6,0000.0,0003.96,0003.68,0003.63
2022-01-22 11:39:00,,0831.9,5.01,0.00,22.1,21.3,00.0,31.2,23.8,12.5,0000.0,0003.91,0003.65,0003.60
2022-01-22 11:40:00,,0831.9,4.98,0.00,22.1,21.5,00.0,31.2,23.8,12.5,0000.0,0003.86,0003.63,0003.57
2022-01-22 11:41:00,,0831.9,5.00,0.00,22.2,22.1,00.0,31.2,24.0,12.5,0000.0,0003.76,0003.58,0003.53
2022-01-22 11:42:00,,0831.9,5.00,0.00,22.3,22.8,00.0,31.3,24.2,12.4,0000.0,0003.77,0003.57,0003.52
2022-01-22 11:43:00,,0831.9,5.01,0.00,22.4,23.0,00.0,31.3,24.3,12.3,0000.0,0003.73,0003.56,0003.51
2022-01-22 11:44:00,,0831.9,5.00,0.00,22.4,22.7,00.0,31.3,24.3,12.2,0000.0,0003.67,0003.54,0003.50
2022-01-22 11:45:00,,0831.8,5.00,0.00,22.4,22.5,00.0,31.3,24.2,12.2,0000.0,0003.63,0003.52,0003.48
2022-01-22 11:46:00,,0831.8,5.00,0.00,22.4,22.3,00.0,31.3,24.2,12.2,0000.0,0003.62,0003.52,0003.48
2022-01-22 11:47:00,,0831.7,4.99,0.00,22.3,22.1,00.0,31.3,24.1,12.2,0000.0,0003.62,0003.51,0003.48
2022-01-22 11:48:00,,0831.7,5.01,0.00,22.3,22.0,00.0,31.3,24.0,12.2,0000.0,0003.64,0003.51,0003.47
2022-01-22 11:49:00,,0831.7,5.00,0.00,22.3,21.8,00.0,31.3,24.0,12.2,0000.0,0003.69,0003.51,0003.46
2022-01-22 11:50:00,,0831.6,5.01,0.00,22.3,21.7,00.0,31.3,23.9,12.2,0000.0,0003.72,0003.51,0003.45
2022-01-22 11:51:00,,0831.7,5.01,0.00,22.2,21.6,00.0,31.3,23.9,12.2,0000.0,0003.74,0003.51,0003.44
2022-01-22 11:52:00,,0831.7,4.99,0.00,22.2,21.5,00.0,31.3,23.9,12.2,0000.0,0003.72,0003.51,0003.44
2022-01-22 11:53:00,,0831.6,5.00,0.00,22.2,21.5,00.0,31.3,23.8,12.2,0000.0,0003.67,0003.49,0003.43
2022-01-22 11:54:00,,0831.7,5.00,0.00,22.1,21.4,00.0,31.2,23.8,12.3,0000.0,0003.68,0003.49,0003.42
2022-01-22 11:55:00,,0831.6,5.01,0.00,22.1,21.4,00.0,31.2,23.8,12.3,0000.0,0003.90,0003.48,0003.41
2022-01-22 11:56:00,,0831.6,4.99,0.00,22.1,21.3,00.0,31.2,23.7,12.3,0000.0,0003.90,0003.47,0003.40
2022-01-22 11:57:00,,0831.6,5.02,0.00,22.1,21.4,00.0,31.2,23.7,12.3,0000.0,0003.98,0003.47,0003.39
2022-01-22 11:58:00,,0831.6,4.99,0.00,22.1,22.1,00.0,31.2,23.9,12.2,0000.0,0004.07,0003.48,0003.38
2022-01-22 11:59:00,,0831.6,5.00,0.00,22.3,22.8,00.0,31.3,24.2,12.1,0000.0,0004.11,0003.47,0003.37
